Location: *
(40.7765°S, 106.5327°E)
Time: 17:00:12
(UTC+00:00)

Cosmos 1354 Rocket - Pass Details

Date: 26 May 2022
Orbit: 763 x 783 km, 74.0° (Epoch: 04 July)

Event Time Altitude Azimuth Distance (km) Brightness Sun altitude
Rises 11:44:56 0° 198° (SSW) 3,267 7.4 -23.6°
Reaches altitude 10° 11:47:20 10° 195° (SSW) 2,333 6.6 -24.1°
Enters shadow 11:52:30 72° 125° (SE) 816 3.9 -25.0°
